When you browse on this site, cookies collect data to enhance your experience and personalize the content and advertising you see.
Visit our Privacy Policy to learn more. By continuing to use the site, you agree to this use of cookies and data.
  • In United Kingdom
  • List of Countries
  • For 7 days
  • Water Temperature
  • Weather Map
  • Weather Widgets
  • user-avatar
    Login

    Hourly Weather Pivdenne

    Today, 17 October, Thursday

    Time Temperature Precipitation Wind Pressure Humidity
    00:00 +16°C° 0 mm 3 mps 760 mmHg 63%
    01:00 +14°C° 0 mm 3 mps 760 mmHg 67%
    02:00 +14°C° 0 mm 3 mps 760 mmHg 71%
    03:00 +13°C° 0 mm 3 mps 760 mmHg 73%
    04:00 +13°C° 0 mm 3 mps 760 mmHg 76%
    05:00 +13°C° 0 mm 3 mps 760 mmHg 79%
    06:00 +13°C° 0 mm 3 mps 760 mmHg 76%
    07:00 +14°C° 0 mm 3 mps 759 mmHg 73%
    08:00 +15°C° 0 mm 4 mps 759 mmHg 70%
    09:00 +18°C° 0 mm 3 mps 759 mmHg 63%
    10:00 +19°C° 0 mm 3 mps 759 mmHg 56%
    11:00 +21°C° 0 mm 3 mps 759 mmHg 49%
    12:00 +22°C° 0 mm 3 mps 759 mmHg 47%
    13:00 +22°C° 0 mm 3 mps 759 mmHg 44%
    14:00 +24°C° 0 mm 3 mps 758 mmHg 42%
    15:00 +23°C° 0 mm 2 mps 758 mmHg 45%
    16:00 +21°C° 0 mm 2 mps 758 mmHg 48%
    17:00 +21°C° 0 mm 1 mps 758 mmHg 51%
    18:00 +20°C° 0 mm 1 mps 758 mmHg 53%
    19:00 +19°C° 0 mm 1 mps 758 mmHg 56%
    20:00 +18°C° 0 mm 2 mps 758 mmHg 58%
    21:00 +18°C° 0 mm 1 mps 758 mmHg 61%
    22:00 +18°C° 0 mm 1 mps 758 mmHg 64%
    23:00 +16°C° 0 mm 1 mps 758 mmHg 67%

    Tomorrow, 18 October, Friday

    Time Temperature Precipitation Wind Pressure Humidity
    00:00 +16°C° 0 mm 1 mps 758 mmHg 67%
    01:00 +16°C° 0 mm 1 mps 758 mmHg 68%
    02:00 +15°C° 0 mm 1 mps 758 mmHg 69%
    03:00 +15°C° 0 mm 1 mps 758 mmHg 70%
    04:00 +15°C° 0 mm 1 mps 758 mmHg 70%
    05:00 +14°C° 0 mm 1 mps 758 mmHg 71%
    06:00 +15°C° 0 mm 1 mps 758 mmHg 68%
    07:00 +16°C° 0 mm 2 mps 758 mmHg 65%
    08:00 +17°C° 0 mm 2 mps 758 mmHg 62%
    09:00 +18°C° 0 mm 2 mps 758 mmHg 57%
    10:00 +20°C° 0 mm 2 mps 758 mmHg 52%
    11:00 +21°C° 0 mm 2 mps 758 mmHg 46%
    12:00 +23°C° 0 mm 1 mps 758 mmHg 44%
    13:00 +23°C° 0 mm 1 mps 758 mmHg 41%
    14:00 +24°C° 0 mm 1 mps 757 mmHg 39%
    15:00 +23°C° 0 mm 1 mps 757 mmHg 42%
    16:00 +22°C° 0 mm 1 mps 757 mmHg 46%
    17:00 +21°C° 0 mm 1 mps 757 mmHg 49%
    18:00 +20°C° 0 mm 1 mps 757 mmHg 51%
    19:00 +18°C° 0 mm 2 mps 758 mmHg 53%
    20:00 +18°C° 0 mm 2 mps 758 mmHg 55%
    21:00 +17°C° 0 mm 2 mps 758 mmHg 57%
    22:00 +17°C° 0 mm 2 mps 758 mmHg 58%
    23:00 +16°C° 0 mm 2 mps 758 mmHg 60%

    Day after tomorrow, 19 October, Saturday

    Time Temperature Precipitation Wind Pressure Humidity
    00:00 +16°C° 0 mm 2 mps 758 mmHg 62%
    01:00 +15°C° 0 mm 2 mps 758 mmHg 63%
    02:00 +15°C° 0 mm 2 mps 758 mmHg 65%
    03:00 +15°C° 0 mm 2 mps 758 mmHg 66%
    04:00 +14°C° 0 mm 2 mps 759 mmHg 67%
    05:00 +14°C° 0 mm 2 mps 759 mmHg 68%
    06:00 +15°C° 0 mm 2 mps 759 mmHg 66%
    07:00 +15°C° 0 mm 2 mps 759 mmHg 64%
    08:00 +16°C° 0 mm 2 mps 759 mmHg 61%
    09:00 +18°C° 0 mm 2 mps 759 mmHg 56%
    10:00 +19°C° 0 mm 2 mps 759 mmHg 50%
    11:00 +21°C° 0 mm 2 mps 760 mmHg 45%
    12:00 +21°C° 0 mm 2 mps 759 mmHg 43%
    13:00 +23°C° 0 mm 2 mps 759 mmHg 40%
    14:00 +24°C° 0 mm 2 mps 759 mmHg 38%
    15:00 +21°C° 0 mm 2 mps 759 mmHg 41%
    16:00 +20°C° 0 mm 2 mps 759 mmHg 45%
    17:00 +19°C° 0 mm 2 mps 759 mmHg 48%
    18:00 +19°C° 0 mm 2 mps 759 mmHg 49%
    19:00 +18°C° 0 mm 2 mps 759 mmHg 50%
    20:00 +18°C° 0 mm 2 mps 760 mmHg 51%
    21:00 +17°C° 0 mm 2 mps 760 mmHg 54%
    22:00 +16°C° 0 mm 2 mps 760 mmHg 56%
    23:00 +16°C° 0 mm 2 mps 760 mmHg 58%

    20 October, Sunday

    Time Temperature Precipitation Wind Pressure Humidity
    00:00 +15°C° 0 mm 2 mps 760 mmHg 59%
    01:00 +15°C° 0 mm 1 mps 760 mmHg 61%
    02:00 +15°C° 0 mm 1 mps 760 mmHg 63%
    03:00 +14°C° 0 mm 2 mps 761 mmHg 63%
    04:00 +14°C° 0 mm 2 mps 761 mmHg 64%
    05:00 +14°C° 0 mm 2 mps 761 mmHg 64%
    06:00 +15°C° 0 mm 2 mps 761 mmHg 62%
    07:00 +14°C° 0 mm 3 mps 761 mmHg 59%
    08:00 +16°C° 0 mm 3 mps 761 mmHg 57%
    09:00 +18°C° 0 mm 3 mps 762 mmHg 52%
    10:00 +19°C° 0 mm 3 mps 762 mmHg 47%
    11:00 +21°C° 0 mm 3 mps 762 mmHg 42%
    12:00 +21°C° 0 mm 3 mps 762 mmHg 40%
    13:00 +22°C° 0 mm 3 mps 762 mmHg 37%
    14:00 +24°C° 0 mm 3 mps 761 mmHg 35%
    15:00 +21°C° 0 mm 3 mps 761 mmHg 38%
    16:00 +20°C° 0 mm 2 mps 761 mmHg 41%
    17:00 +19°C° 0 mm 2 mps 761 mmHg 44%
    18:00 +18°C° 0 mm 2 mps 761 mmHg 47%
    19:00 +18°C° 0 mm 3 mps 762 mmHg 49%
    20:00 +17°C° 0 mm 3 mps 762 mmHg 51%
    21:00 +17°C° 0 mm 3 mps 762 mmHg 54%
    22:00 +16°C° 0 mm 2 mps 762 mmHg 57%
    23:00 +15°C° 0 mm 2 mps 762 mmHg 60%

    21 October, Monday

    Time Temperature Precipitation Wind Pressure Humidity
    00:00 +15°C° 0 mm 2 mps 762 mmHg 62%
    01:00 +15°C° 0 mm 2 mps 762 mmHg 64%
    02:00 +13°C° 0 mm 3 mps 762 mmHg 66%
    03:00 +13°C° 0 mm 3 mps 762 mmHg 68%
    04:00 +13°C° 0 mm 3 mps 762 mmHg 71%
    05:00 +12°C° 0 mm 3 mps 762 mmHg 73%
    06:00 +13°C° 0 mm 3 mps 763 mmHg 71%
    07:00 +13°C° 0 mm 3 mps 763 mmHg 69%
    08:00 +14°C° 0 mm 3 mps 763 mmHg 67%
    09:00 +17°C° 0 mm 3 mps 763 mmHg 61%
    10:00 +18°C° 0 mm 3 mps 763 mmHg 54%
    11:00 +20°C° 0 mm 3 mps 763 mmHg 47%
    12:00 +21°C° 0 mm 3 mps 763 mmHg 44%
    13:00 +21°C° 0 mm 3 mps 762 mmHg 41%
    14:00 +23°C° 0 mm 2 mps 762 mmHg 39%
    15:00 +21°C° 0 mm 2 mps 762 mmHg 41%
    16:00 +19°C° 0 mm 2 mps 762 mmHg 44%
    17:00 +19°C° 0 mm 1 mps 762 mmHg 46%
    18:00 +19°C° 0 mm 1 mps 762 mmHg 47%
    19:00 +18°C° 0 mm 1 mps 762 mmHg 49%
    20:00 +18°C° 0 mm 1 mps 762 mmHg 50%
    21:00 +16°C° 0 mm 1 mps 762 mmHg 53%
    22:00 +15°C° 0 mm 1 mps 762 mmHg 56%
    23:00 +15°C° 0 mm 1 mps 762 mmHg 58%

    22 October, Tuesday

    Time Temperature Precipitation Wind Pressure Humidity
    00:00 +15°C° 0 mm 2 mps 762 mmHg 60%
    01:00 +14°C° 0 mm 2 mps 762 mmHg 61%
    02:00 +14°C° 0 mm 2 mps 762 mmHg 62%
    03:00 +14°C° 0 mm 1 mps 762 mmHg 64%
    04:00 +13°C° 0 mm 1 mps 762 mmHg 65%
    05:00 +13°C° 0 mm 1 mps 761 mmHg 66%
    06:00 +13°C° 0 mm 1 mps 762 mmHg 64%
    07:00 +13°C° 0 mm 0 mps 762 mmHg 61%
    08:00 +14°C° 0 mm 0 mps 762 mmHg 58%
    09:00 +15°C° 0 mm 0 mps 762 mmHg 54%
    10:00 +17°C° 0 mm 0 mps 762 mmHg 49%
    11:00 +20°C° 0 mm 1 mps 761 mmHg 45%
    12:00 +21°C° 0 mm 1 mps 761 mmHg 43%
    13:00 +21°C° 0 mm 1 mps 761 mmHg 41%
    14:00 +22°C° 0 mm 1 mps 761 mmHg 39%
    15:00 +21°C° 0 mm 1 mps 760 mmHg 42%
    16:00 +18°C° 0 mm 0 mps 760 mmHg 46%
    17:00 +17°C° 0 mm 0 mps 760 mmHg 49%
    18:00 +16°C° 0 mm 0 mps 760 mmHg 51%
    19:00 +16°C° 0 mm 0 mps 760 mmHg 53%
    20:00 +16°C° 0 mm 1 mps 760 mmHg 54%
    21:00 +16°C° 0 mm 1 mps 760 mmHg 56%
    22:00 +16°C° 0 mm 1 mps 760 mmHg 58%
    23:00 +15°C° 0 mm 2 mps 760 mmHg 60%
    Show more